Voltar ao catálogo

CSTP-2.11

AtivoCiênciaSSO
NORAD 61744·PAYLOAD·🇷🇺 Russia

Lançado Nov 4, 2024 de Vostochny Cosmodrome

Loading…

Próximas Passagens (próximas 24 horas)

TLE

AtualizadoSource: Space-Track

Época: Sep 14, 2026, 14:11 UTC

1 61744U 24199K   26257.59156117  .00032005  00000-0  44159-3 0  9990
2 61744  97.2774 134.3976 0004574 322.7263  37.3675 15.57127352148257

Acompanhe CSTP-2.11 em tempo real com AllMySat

Download on the App Store